Starlink 11508

operational
NORAD ID: 62515 Int'l Des: 2025-004 Owner: SPXS Country: US Constellation: starlink
LEOCIRCULAR

Über Starlink 11508

Beschreibung wird geladen...

Live-Position

3D-Globus wird geladen...

Nächste Überflüge

Höhenverlauf

Altitude vs Time

uPlot chart will show altitude changes over time

Zweizeiliger Elementsatz

1 62515U 25004E 25353.84921661 .00208970 00000-0 15848-2 0 9999
2 62515 42.9994 191.8078 0003642 257.7368 102.3092 15.70935807 54657
Epoch: 19. Dez. 2025 • Age: 6 hours

Aktueller Status

Höhe 361.4 km
Geschwindigkeit 7.70 km/s
Subsatellitenpunkt 42.88°N, 140.64°E
Startdatum 8. Jan. 2025
Alter 0.9 years
Typ internet

Technische Details

Klassifizierung Payload
Masse 960.00 kg
Trockenmasse 910.00 kg
Gesamtmasse 960.00 kg
Länge 0.30 m
Durchmesser 4.10 m
Spannweite 29.00 m
Form Box + pan
Hersteller SPXS
Bus-Typ Starlink V2MD
Phasenstatus In Orbit
Besitzer/Staat SPXS/US

Große Konstellationen

Loading constellations...